When you browse on this site, cookies collect data to enhance your experience and personalize the content and advertising you see.
Visit our Privacy Policy to learn more. By continuing to use the site, you agree to this use of cookies and data.
  • Em Portugal
  • Lista de países
  • Para 7 dias
  • Temperatura da água
  • Mapas de satélite
  • Mapa do tempo
  • Widgets de tempo
  • user-avatar
    Iniciar Sessão

    Previsão horária em Cobe

    Hoje, 19 Janeiro, Sábado

    Tempo Temperatura Precipitação Vento Pressão Humidade
    00:00 +6°C° 0 mm 2 m/s 763 mmHg 65%
    01:00 +6°C° 0 mm 2 m/s 763 mmHg 65%
    02:00 +6°C° 0 mm 2 m/s 763 mmHg 66%
    03:00 +6°C° 0 mm 2 m/s 763 mmHg 67%
    04:00 +5°C° 0 mm 3 m/s 763 mmHg 68%
    05:00 +5°C° 0 mm 3 m/s 763 mmHg 69%
    06:00 +5°C° 0 mm 3 m/s 763 mmHg 70%
    07:00 +7°C° 0 mm 3 m/s 763 mmHg 67%
    08:00 +8°C° 0 mm 3 m/s 763 mmHg 64%
    09:00 +8°C° 0 mm 2 m/s 763 mmHg 62%
    10:00 +9°C° 0 mm 2 m/s 763 mmHg 58%
    11:00 +10°C° 0 mm 3 m/s 762 mmHg 53%
    12:00 +11°C° 0 mm 3 m/s 762 mmHg 48%
    13:00 +11°C° 0 mm 3 m/s 762 mmHg 46%
    14:00 +12°C° 0 mm 3 m/s 761 mmHg 43%
    15:00 +13°C° 0 mm 1 m/s 761 mmHg 43%
    16:00 +12°C° 0 mm 2 m/s 761 mmHg 46%
    17:00 +10°C° 0 mm 2 m/s 761 mmHg 48%
    18:00 +9°C° 0 mm 2 m/s 761 mmHg 51%
    19:00 +9°C° 0 mm 2 m/s 760 mmHg 53%
    20:00 +9°C° 0 mm 3 m/s 760 mmHg 55%
    21:00 +8°C° 0 mm 3 m/s 759 mmHg 53%
    22:00 +8°C° 0 mm 3 m/s 759 mmHg 55%
    23:00 +8°C° 0 mm 3 m/s 759 mmHg 57%

    Amanhã, 20 Janeiro, Domingo

    Tempo Temperatura Precipitação Vento Pressão Humidade
    00:00 +8°C° 0 mm 3 m/s 759 mmHg 58%
    01:00 +8°C° 0 mm 3 m/s 758 mmHg 60%
    02:00 +8°C° 0 mm 3 m/s 757 mmHg 62%
    03:00 +8°C° 0 mm 3 m/s 757 mmHg 64%
    04:00 +8°C° 0 mm 4 m/s 756 mmHg 65%
    05:00 +9°C° 0 mm 5 m/s 755 mmHg 65%
    06:00 +10°C° 0 mm 6 m/s 754 mmHg 66%
    07:00 +11°C° 0.1 mm 7 m/s 754 mmHg 67%
    08:00 +12°C° 0.1 mm 7 m/s 753 mmHg 69%
    09:00 +13°C° 0.1 mm 8 m/s 753 mmHg 71%
    10:00 +13°C° 0.5 mm 9 m/s 753 mmHg 71%
    11:00 +12°C° 0.5 mm 10 m/s 753 mmHg 71%
    12:00 +11°C° 0.5 mm 11 m/s 753 mmHg 71%
    13:00 +11°C° 0 mm 11 m/s 753 mmHg 65%
    14:00 +12°C° 0 mm 11 m/s 753 mmHg 58%
    15:00 +12°C° 0 mm 11 m/s 753 mmHg 52%
    16:00 +11°C° 0 mm 11 m/s 753 mmHg 53%
    17:00 +9°C° 0 mm 11 m/s 753 mmHg 54%
    18:00 +8°C° 0 mm 11 m/s 754 mmHg 56%
    19:00 +8°C° 0 mm 11 m/s 754 mmHg 56%
    20:00 +7°C° 0 mm 10 m/s 754 mmHg 57%
    21:00 +6°C° 0 mm 10 m/s 754 mmHg 57%
    22:00 +6°C° 0 mm 10 m/s 754 mmHg 57%
    23:00 +6°C° 0 mm 10 m/s 755 mmHg 58%

    Depois de amanhã, 21 Janeiro, Segunda-feira

    Tempo Temperatura Precipitação Vento Pressão Humidade
    00:00 +5°C° 0 mm 10 m/s 755 mmHg 58%
    01:00 +5°C° 0.1 mm 9 m/s 755 mmHg 60%
    02:00 +5°C° 0.1 mm 8 m/s 755 mmHg 62%
    03:00 +5°C° 0.1 mm 7 m/s 756 mmHg 65%
    04:00 +4°C° 0.6 mm 7 m/s 756 mmHg 67%
    05:00 +4°C° 0.6 mm 6 m/s 756 mmHg 69%
    06:00 +3°C° 0.6 mm 5 m/s 756 mmHg 71%
    07:00 +4°C° 0.5 mm 4 m/s 756 mmHg 69%
    08:00 +4°C° 0.5 mm 3 m/s 757 mmHg 68%
    09:00 +4°C° 0.5 mm 3 m/s 757 mmHg 67%
    10:00 +5°C° 0.3 mm 4 m/s 757 mmHg 66%
    11:00 +6°C° 0.3 mm 5 m/s 756 mmHg 65%
    12:00 +5°C° 0.3 mm 6 m/s 756 mmHg 64%
    13:00 +6°C° 0.1 mm 7 m/s 756 mmHg 60%
    14:00 +6°C° 0.1 mm 8 m/s 755 mmHg 55%
    15:00 +7°C° 0.1 mm 9 m/s 755 mmHg 50%
    16:00 +7°C° 0 mm 9 m/s 755 mmHg 51%
    17:00 +7°C° 0 mm 9 m/s 755 mmHg 52%
    18:00 +6°C° 0 mm 9 m/s 755 mmHg 53%
    19:00 +6°C° 0 mm 9 m/s 755 mmHg 54%
    20:00 +6°C° 0 mm 9 m/s 755 mmHg 56%
    21:00 +5°C° 0 mm 10 m/s 755 mmHg 57%
    22:00 +5°C° 0.1 mm 10 m/s 755 mmHg 58%
    23:00 +5°C° 0.1 mm 10 m/s 755 mmHg 60%

    22 Janeiro, Terça-feira

    Tempo Temperatura Precipitação Vento Pressão Humidade
    00:00 +4°C° 0.1 mm 11 m/s 755 mmHg 61%
    01:00 +6°C° 0.2 mm 11 m/s 755 mmHg 62%
    02:00 +5°C° 0.2 mm 12 m/s 754 mmHg 62%
    03:00 +5°C° 0.2 mm 12 m/s 754 mmHg 63%
    04:00 +4°C° 0.1 mm 12 m/s 754 mmHg 63%
    05:00 +4°C° 0.1 mm 12 m/s 754 mmHg 63%
    06:00 +4°C° 0.1 mm 12 m/s 755 mmHg 62%
    07:00 +4°C° 0.1 mm 11 m/s 755 mmHg 61%
    08:00 +4°C° 0.1 mm 11 m/s 755 mmHg 60%
    09:00 +6°C° 0.1 mm 10 m/s 756 mmHg 58%
    10:00 +6°C° 0 mm 9 m/s 756 mmHg 56%
    11:00 +6°C° 0 mm 8 m/s 756 mmHg 54%
    12:00 +7°C° 0 mm 8 m/s 756 mmHg 51%
    13:00 +8°C° 0 mm 7 m/s 755 mmHg 50%
    14:00 +8°C° 0 mm 7 m/s 755 mmHg 49%
    15:00 +8°C° 0 mm 7 m/s 755 mmHg 48%
    16:00 +8°C° 0 mm 7 m/s 755 mmHg 49%
    17:00 +8°C° 0 mm 7 m/s 756 mmHg 49%
    18:00 +8°C° 0 mm 7 m/s 756 mmHg 49%
    19:00 +8°C° 0 mm 7 m/s 756 mmHg 49%
    20:00 +8°C° 0 mm 7 m/s 756 mmHg 50%
    21:00 +6°C° 0 mm 8 m/s 756 mmHg 51%
    22:00 +6°C° 0 mm 8 m/s 756 mmHg 52%
    23:00 +6°C° 0 mm 8 m/s 756 mmHg 54%

    23 Janeiro, Quarta-feira

    Tempo Temperatura Precipitação Vento Pressão Humidade
    00:00 +6°C° 0 mm 8 m/s 756 mmHg 55%
    01:00 +6°C° 0.1 mm 8 m/s 755 mmHg 57%
    02:00 +6°C° 0.1 mm 8 m/s 755 mmHg 59%
    03:00 +6°C° 0.1 mm 8 m/s 755 mmHg 60%
    04:00 +6°C° 0.2 mm 9 m/s 754 mmHg 60%
    05:00 +6°C° 0.2 mm 9 m/s 754 mmHg 60%
    06:00 +6°C° 0.2 mm 9 m/s 754 mmHg 60%
    07:00 +7°C° 0.2 mm 10 m/s 754 mmHg 60%
    08:00 +7°C° 0.2 mm 10 m/s 754 mmHg 59%
    09:00 +7°C° 0.2 mm 11 m/s 754 mmHg 59%
    10:00 +7°C° 0.1 mm 11 m/s 754 mmHg 57%
    11:00 +7°C° 0.1 mm 11 m/s 753 mmHg 55%
    12:00 +8°C° 0.1 mm 11 m/s 753 mmHg 53%
    13:00 +8°C° 0.1 mm 11 m/s 753 mmHg 52%
    14:00 +8°C° 0.1 mm 11 m/s 753 mmHg 51%
    15:00 +8°C° 0.1 mm 12 m/s 752 mmHg 50%
    16:00 +7°C° 0.1 mm 12 m/s 753 mmHg 51%
    17:00 +5°C° 0.1 mm 12 m/s 754 mmHg 53%
    18:00 +5°C° 0.1 mm 12 m/s 755 mmHg 54%
    19:00 +4°C° 0.2 mm 12 m/s 756 mmHg 55%
    20:00 +3°C° 0.2 mm 11 m/s 757 mmHg 57%
    21:00 +2°C° 0.2 mm 10 m/s 758 mmHg 58%
    22:00 +2°C° 0.1 mm 10 m/s 758 mmHg 56%
    23:00 +2°C° 0.1 mm 10 m/s 758 mmHg 55%

    24 Janeiro, Quinta-feira

    Tempo Temperatura Precipitação Vento Pressão Humidade
    00:00 +1°C° 0.1 mm 10 m/s 759 mmHg 53%
    01:00 +1°C° 0 mm 10 m/s 759 mmHg 54%
    02:00 +1°C° 0 mm 10 m/s 759 mmHg 54%
    03:00 +1°C° 0 mm 10 m/s 760 mmHg 55%
    04:00 +1°C° 0 mm 10 m/s 760 mmHg 55%
    05:00 0°C° 0 mm 9 m/s 760 mmHg 55%
    06:00 0°C° 0 mm 9 m/s 761 mmHg 56%
    07:00 +1°C° 0 mm 8 m/s 761 mmHg 55%
    08:00 +1°C° 0 mm 8 m/s 762 mmHg 54%
    09:00 +1°C° 0 mm 8 m/s 762 mmHg 53%
    10:00 +3°C° 0 mm 7 m/s 762 mmHg 51%
    11:00 +3°C° 0 mm 7 m/s 762 mmHg 49%
    12:00 +4°C° 0 mm 7 m/s 762 mmHg 48%
    13:00 +4°C° 0 mm 7 m/s 762 mmHg 47%
    14:00 +4°C° 0 mm 7 m/s 761 mmHg 47%
    15:00 +5°C° 0 mm 7 m/s 761 mmHg 47%
    16:00 +4°C° 0 mm 7 m/s 762 mmHg 49%
    17:00 +4°C° 0 mm 7 m/s 762 mmHg 51%
    18:00 +4°C° 0 mm 7 m/s 762 mmHg 52%
    19:00 +3°C° 0 mm 6 m/s 763 mmHg 54%
    20:00 +3°C° 0 mm 6 m/s 763 mmHg 57%
    21:00 +2°C° 0 mm 5 m/s 763 mmHg 59%
    22:00 +2°C° 0 mm 5 m/s 763 mmHg 60%
    23:00 +3°C° 0 mm 4 m/s 763 mmHg 61%
    Mostrar mais